| time (UTC) | temp F | wind direction | speed MPH | gust MPH | rain 1hr in | rain 24hr in | rain mn in | humidity % | barometer mb |
| 20260505041542 | 76 | 111 | 6.0 | 9.0 | 0.00 | 0.00 | 0.00 | 1013.1 | |
| 20260505041037 | 77 | 121 | 6.0 | 9.0 | 0.00 | 0.00 | 0.00 | 1013.1 | |
| 20260505040542 | 77 | 121 | 6.0 | 9.0 | 0.00 | 0.00 | 0.00 | 1013.1 | |
| 20260505035706 | 77 | 62 | 6.0 | 9.0 | 0.00 | 0.00 | 0.00 | 1013.3 | |
| 20260505035541 | 77 | 62 | 6.0 | 9.0 | 0.00 | 0.00 | 0.00 | 1013.3 | |
| 20260505034733 | 77 | 63 | 6.0 | 10.0 | 0.00 | 0.00 | 0.00 | 1013.2 | |
| 20260505034540 | 77 | 63 | 6.0 | 10.0 | 0.00 | 0.00 | 0.00 | 1013.2 | |
| 20260505034306 | 77 | 58 | 6.0 | 8.0 | 0.00 | 0.00 | 0.00 | 1013.2 | |
| 20260505033540 | 77 | 58 | 6.0 | 8.0 | 0.00 | 0.00 | 0.00 | 1013.2 | |
| 20260505033503 | 78 | 118 | 7.0 | 9.0 | 0.00 | 0.00 | 0.00 | 1013.1 | |
| 20260505032540 | 78 | 118 | 7.0 | 9.0 | 0.00 | 0.00 | 0.00 | 1013.1 | |
| 20260505031540 | 78 | 94 | 7.0 | 11.0 | 0.00 | 0.00 | 0.00 | 1013.4 | |
| 20260505030539 | 79 | 89 | 6.0 | 9.0 | 0.00 | 0.00 | 0.00 | 1013.2 | |
| 20260505025537 | 79 | 68 | 8.0 | 11.0 | 0.00 | 0.00 | 0.00 | 1013.3 | |
| 20260505024537 | 78 | 100 | 6.0 | 9.0 | 0.00 | 0.00 | 0.00 | 1013.0 | |
| 20260505023536 | 79 | 86 | 7.0 | 10.0 | 0.00 | 0.00 | 0.00 | 1012.9 | |
| 20260505022536 | 79 | 108 | 5.0 | 8.0 | 0.00 | 0.00 | 0.00 | 1012.9 | |
| 20260505021536 | 79 | 79 | 7.0 | 15.0 | 0.00 | 0.00 | 0.00 | 1012.9 | |
| 20260505020536 | 80 | 111 | 8.0 | 14.0 | 0.00 | 0.00 | 0.00 | 1013.0 | |
| 20260505015535 | 80 | 55 | 8.0 | 11.0 | 0.00 | 0.00 | 0.00 | 1012.9 | |
| 20260505014535 | 80 | 75 | 10.0 | 16.0 | 0.00 | 0.00 | 0.00 | 1012.7 | |
| 20260505013535 | 81 | 84 | 7.0 | 10.0 | 0.00 | 0.00 | 0.00 | 1012.5 | |
| 20260505013216 | 81 | 96 | 8.0 | 16.0 | 0.00 | 0.00 | 0.00 | 1012.3 | |
| 20260505012535 | 81 | 96 | 8.0 | 16.0 | 0.00 | 0.00 | 0.00 | 1012.3 | |
| 20260505012423 | 81 | 90 | 7.0 | 12.0 | 0.00 | 0.00 | 0.00 | 1012.2 | |
| 20260505011534 | 81 | 90 | 7.0 | 12.0 | 0.00 | 0.00 | 0.00 | 1012.2 | |
| 20260505010534 | 82 | 101 | 9.0 | 16.0 | 0.00 | 0.00 | 0.00 | 1012.0 | |
| 20260505005534 | 82 | 108 | 10.0 | 15.0 | 0.00 | 0.00 | 0.00 | 1011.9 | |
| 20260505004533 | 83 | 93 | 8.0 | 11.0 | 0.00 | 0.00 | 0.00 | 1011.9 | |
| 20260505003533 | 84 | 59 | 9.0 | 15.0 | 0.00 | 0.00 | 0.00 | 1011.6 | |
| 20260505002533 | 84 | 55 | 8.0 | 13.0 | 0.00 | 0.00 | 0.00 | 1011.7 | |
| 20260505001533 | 84 | 104 | 8.0 | 14.0 | 0.00 | 0.00 | 0.00 | 1011.4 | |
| 20260505000532 | 84 | 79 | 7.0 | 14.0 | 0.00 | 0.00 | 0.00 | 1011.0 | |
| 20260504235532 | 85 | 75 | 6.0 | 11.0 | 0.00 | 0.00 | 0.00 | 1010.9 | |
| 20260504234532 | 85 | 114 | 8.0 | 14.0 | 0.00 | 0.00 | 0.00 | 1010.8 | |
| 20260504233532 | 86 | 110 | 8.0 | 12.0 | 0.00 | 0.00 | 0.00 | 1010.7 | |
| 20260504233045 | 87 | 108 | 7.0 | 16.0 | 0.00 | 0.00 | 0.00 | 1010.5 | |
| 20260504232532 | 86 | 62 | 7.0 | 12.0 | 0.00 | 0.00 | 0.00 | 1010.6 | |
| 20260504231531 | 86 | 111 | 8.0 | 16.0 | 0.00 | 0.00 | 0.00 | 1010.6 | |
| 20260504230531 | 87 | 108 | 7.0 | 16.0 | 0.00 | 0.00 | 0.00 | 1010.5 | |
| 20260504225531 | 88 | 110 | 9.0 | 15.0 | 0.00 | 0.00 | 0.00 | 1010.4 | |
| 20260504224530 | 89 | 104 | 7.0 | 11.0 | 0.00 | 0.00 | 0.00 | 1010.4 | |
| 20260504223530 | 89 | 31 | 10.0 | 19.0 | 0.00 | 0.00 | 0.00 | 1010.6 | |
| 20260504222530 | 89 | 60 | 8.0 | 10.0 | 0.00 | 0.00 | 0.00 | 1010.6 | |
| 20260504221530 | 89 | 60 | 8.0 | 11.0 | 0.00 | 0.00 | 0.00 | 1010.6 | |
| 20260504220713 | 89 | 76 | 7.0 | 12.0 | 0.00 | 0.00 | 0.00 | 1010.7 | |
| 20260504220529 | 89 | 76 | 7.0 | 12.0 | 0.00 | 0.00 | 0.00 | 1010.7 | |
| 20260504215529 | 89 | 44 | 9.0 | 13.0 | 0.00 | 0.00 | 0.00 | 1010.6 | |
| 20260504215009 | 90 | 89 | 5.0 | 8.0 | 0.00 | 0.00 | 0.00 | 1010.6 | |
| 20260504214529 | 90 | 89 | 5.0 | 8.0 | 0.00 | 0.00 | 0.00 | 1010.6 | |
| 20260504213529 | 90 | 104 | 8.0 | 19.0 | 0.00 | 0.00 | 0.00 | 1010.6 | |
| 20260504212528 | 90 | 56 | 11.0 | 17.0 | 0.00 | 0.00 | 0.00 | 1010.6 | |
| 20260504211528 | 89 | 48 | 7.0 | 12.0 | 0.00 | 0.00 | 0.00 | 1010.7 | |
| 20260504210725 | 88 | 53 | 7.0 | 12.0 | 0.00 | 0.00 | 0.00 | 1010.8 | |
| 20260504210528 | 88 | 53 | 7.0 | 12.0 | 0.00 | 0.00 | 0.00 | 1010.8 | |
| 20260504205528 | 89 | 59 | 9.0 | 11.0 | 0.00 | 0.00 | 0.00 | 1010.8 | |
| 20260504204527 | 89 | 115 | 7.0 | 11.0 | 0.00 | 0.00 | 0.00 | 1010.9 | |
| 20260504203527 | 88 | 94 | 7.0 | 12.0 | 0.00 | 0.00 | 0.00 | 1011.1 | |
| 20260504202527 | 89 | 65 | 10.0 | 14.0 | 0.00 | 0.00 | 0.00 | 1011.0 | |
| 20260504201527 | 89 | 96 | 5.0 | 8.0 | 0.00 | 0.00 | 0.00 | 1011.1 | |
| 20260504200526 | 88 | 62 | 3.0 | 8.0 | 0.00 | 0.00 | 0.00 | 1011.3 | |
| 20260504195526 | 88 | 52 | 11.0 | 16.0 | 0.00 | 0.00 | 0.00 | 1011.5 | |
| 20260504194526 | 88 | 51 | 8.0 | 10.0 | 0.00 | 0.00 | 0.00 | 1011.6 | |
| 20260504193525 | 87 | 42 | 4.0 | 9.0 | 0.00 | 0.00 | 0.00 | 1011.7 | |
| 20260504192526 | 87 | 91 | 7.0 | 11.0 | 0.00 | 0.00 | 0.00 | 1011.7 | |
| 20260504191525 | 86 | 103 | 8.0 | 16.0 | 0.00 | 0.00 | 0.00 | 1011.9 | |
| 20260504190524 | 85 | 83 | 5.0 | 8.0 | 0.00 | 0.00 | 0.00 | 1012.0 | |
| 20260504185523 | 86 | 104 | 6.0 | 14.0 | 0.00 | 0.00 | 0.00 | 1012.3 | |
| 20260504184523 | 85 | 58 | 9.0 | 13.0 | 0.00 | 0.00 | 0.00 | 1012.5 | |
| 20260504183522 | 85 | 48 | 6.0 | 9.0 | 0.00 | 0.00 | 0.00 | 1012.6 | |
| 20260504182522 | 84 | 79 | 12.0 | 16.0 | 0.00 | 0.00 | 0.00 | 1012.8 | |
| 20260504181522 | 84 | 76 | 11.0 | 15.0 | 0.00 | 0.00 | 0.00 | 1013.0 | |
| 20260504180522 | 84 | 107 | 12.0 | 18.0 | 0.00 | 0.00 | 0.00 | 1013.1 | |
| 20260504175521 | 82 | 63 | 9.0 | 14.0 | 0.00 | 0.00 | 0.00 | 1013.1 | |
| 20260504174522 | 83 | 65 | 11.0 | 13.0 | 0.00 | 0.00 | 0.00 | 1013.3 | |
| 20260504173521 | 82 | 27 | 9.0 | 12.0 | 0.00 | 0.00 | 0.00 | 1013.5 | |
| 20260504172521 | 81 | 104 | 7.0 | 14.0 | 0.00 | 0.00 | 0.00 | 1013.5 | |
| 20260504171520 | 81 | 59 | 10.0 | 12.0 | 0.00 | 0.00 | 0.00 | 1013.6 | |
| 20260504170520 | 81 | 79 | 12.0 | 20.0 | 0.00 | 0.00 | 0.00 | 1013.7 | |
| 20260504150516 | 75 | 58 | 13.0 | 19.0 | 0.00 | 0.00 | 0.00 | 1014.6 | |
| 20260504140512 | 72 | 90 | 10.0 | 14.0 | 0.00 | 0.00 | 0.00 | 1014.2 | |
| 20260504130510 | 69 | 59 | 13.0 | 19.0 | 0.00 | 0.00 | 0.00 | 1014.0 | |
| 20260504110502 | 68 | 25 | 6.0 | 8.0 | 0.00 | 0.00 | 0.00 | 1013.4 | |
| 20260504081452 | 70 | 77 | 6.0 | 10.0 | 0.00 | 0.00 | 0.00 | 1012.8 | |
| 20260504080452 | 70 | 49 | 9.0 | 13.0 | 0.00 | 0.00 | 0.00 | 1012.7 | |
| 20260504050446 | 71 | 31 | 5.0 | 6.0 | 0.00 | 0.00 | 0.00 | 1014.2 | |
| 20260504045445 | 72 | 121 | 5.0 | 7.0 | 0.00 | 0.00 | 0.00 | 1013.8 | |
| 20260504044445 | 72 | 84 | 4.0 | 5.0 | 0.00 | 0.00 | 0.06 | 1014.2 | |
| 20260504044046 | 72 | 48 | 8.0 | 11.0 | 0.00 | 0.00 | 0.06 | 1014.3 | |
| 20260504043445 | 72 | 60 | 5.0 | 8.0 | 0.00 | 0.00 | 0.06 | 1014.2 | |
| 20260504042445 | 72 | 48 | 8.0 | 11.0 | 0.00 | 0.00 | 0.06 | 1014.3 |